Date_and_time,latitude,longitude,wind_speed,RelWindDirFrom,WindDirFrom,air_pressure,air_temperature,relative_humidity,Temp,platform_speed_wrt_ground,air_pressure_at_mean_sea_level,platform_orientation
2018-08-26 00:00,50.6304466666667,-96.98076,7.6,13.4,272,983.13,20.2,43,20.20,0.0,1008.92,90.0
2018-08-26 00:10,50.630445,-96.9807616666667,6.9,11.0,274,983.20,20.1,43,20.20,0.0,1009.01,90.0
2018-08-26 00:20,50.6304466666667,-96.98076,5.8,9.2,272,983.24,20.0,44,20.20,0.0,1009.05,90.0
2018-08-26 00:30,50.630445,-96.9807616666667,6.2,10.7,268,983.35,19.8,45,20.20,0.0,1009.17,90.0
2018-08-26 00:40,50.6304466666667,-96.9807616666667,5.5,9.6,266,983.43,19.6,45,20.21,0.0,1009.26,90.0
2018-08-26 00:50,50.630445,-96.9807616666667,5.3,11.4,290,983.50,19.4,47,20.21,0.0,1009.33,90.0
2018-08-26 01:00,50.630455,-96.9807733333333,8.1,12.8,301,983.59,18.8,50,20.21,0.0,1009.45,270.0
2018-08-26 01:10,50.6304583333333,-96.9807683333333,5.9,9.7,294,983.77,18.3,51,20.21,0.0,1009.65,270.0
2018-08-26 01:20,50.6304566666667,-96.9807666666667,6.1,11.3,296,983.93,18.0,51,20.20,0.0,1009.83,270.0
2018-08-26 01:30,50.6304516666667,-96.9807633333333,5.8,8.8,294,984.16,17.7,52,20.20,0.0,1010.09,270.0
2018-08-26 01:40,50.6304516666667,-96.9807616666667,4.7,7.9,290,984.32,17.4,53,20.19,0.0,1010.27,270.0
2018-08-26 01:50,50.63045,-96.9807633333333,4.4,6.8,279,984.61,17.0,54,20.18,0.0,1010.59,270.0
2018-08-26 02:00,50.63045,-96.98076,4.9,7.9,287,984.79,16.7,55,20.17,0.0,1010.79,360.0
2018-08-26 02:10,50.63045,-96.9807616666667,4.6,7.9,283,985.07,16.5,56,20.14,0.0,1011.09,360.0
2018-08-26 02:20,50.63045,-96.9807616666667,3.9,6.3,279,985.24,16.1,58,20.13,0.0,1011.29,360.0
2018-08-26 02:30,50.6304516666667,-96.9807616666667,4.4,7.3,276,985.38,15.7,60,20.13,0.0,1011.47,360.0
2018-08-26 02:40,50.6304516666667,-96.98076,4.5,6.9,277,985.52,15.3,61,20.13,0.0,1011.64,360.0
2018-08-26 02:50,50.6304516666667,-96.98076,3.8,5.5,274,985.61,15.0,63,20.13,0.0,1011.77,360.0
2018-08-26 03:00,50.630415,-96.98077,4.6,7.5,272,985.74,14.8,62,20.13,0.0,1011.94,360.0
2018-08-26 03:10,50.6304516666667,-96.98077,4.4,6.5,271,985.79,14.6,63,20.13,0.0,1012.02,360.0
2018-08-26 03:20,50.6304466666667,-96.9807616666667,4.1,6.9,279,985.85,14.4,63,20.12,0.0,1012.09,360.0
2018-08-26 03:30,50.63045,-96.9807616666667,4.1,6.8,284,985.92,14.1,64,20.11,0.0,1012.20,360.0
2018-08-26 03:40,50.63045,-96.9807616666667,4.4,6.8,286,985.96,13.8,65,20.11,0.0,1012.26,360.0
2018-08-26 03:50,50.63045,-96.9807616666667,4.2,6.9,291,986.03,13.8,65,20.10,0.0,1012.35,360.0
2018-08-26 04:00,50.6304516666667,-96.9807616666667,4.3,6.3,301,986.07,13.8,65,20.09,0.0,1012.40,90.0
2018-08-26 04:10,50.63045,-96.9807616666667,4.9,7.3,300,986.13,13.6,66,20.07,0.0,1012.49,90.0
2018-08-26 04:20,50.63045,-96.9807616666667,5.2,7.5,302,986.21,13.5,67,20.06,0.0,1012.60,90.0
2018-08-26 04:30,50.63045,-96.9807616666667,4.2,5.8,300,986.29,13.3,68,20.06,0.0,1012.71,90.0
2018-08-26 04:40,50.6304666666667,-96.98072,5.0,6.5,307,986.30,13.0,69,20.05,0.0,1012.75,90.0
2018-08-26 04:50,50.63045,-96.9807566666667,4.8,7.1,312,986.24,12.9,71,20.03,0.0,1012.70,90.0
2018-08-26 05:00,50.6304483333333,-96.980755,5.1,6.9,315,986.24,12.8,71,20.03,0.0,1012.71,360.0
2018-08-26 05:10,50.6304466666667,-96.9807566666667,4.6,5.8,316,986.29,12.7,72,20.02,0.0,1012.78,360.0
2018-08-26 05:20,50.6304483333333,-96.9807566666667,4.6,5.9,308,986.43,12.6,73,20.01,0.0,1012.95,360.0
2018-08-26 05:30,50.6304516666667,-96.9807583333333,3.6,5.2,297,986.63,12.5,74,20.02,0.0,1013.16,360.0
2018-08-26 05:40,50.6304516666667,-96.98076,4.1,5.3,287,986.84,12.1,75,20.01,0.0,1013.40,360.0
2018-08-26 05:50,50.6304466666667,-96.9807816666667,4.3,5.9,286,986.96,11.7,77,19.99,0.0,1013.54,360.0
2018-08-26 06:00,50.6304233333333,-96.98077,4.4,5.9,293,987.00,11.5,78,19.99,0.0,1013.60,360.0
2018-08-26 06:10,50.6304416666667,-96.9807783333333,4.7,6.4,299,986.93,11.7,78,19.97,0.0,1013.52,360.0
2018-08-26 06:20,50.6304416666667,-96.9807766666667,4.4,6.7,298,986.96,11.7,78,19.96,0.0,1013.57,360.0
2018-08-26 06:30,50.630445,-96.980775,3.9,5.4,291,987.03,11.4,79,19.95,0.0,1013.66,360.0
2018-08-26 06:40,50.63047,-96.9807866666667,3.7,5.0,294,986.99,11.3,80,19.94,0.0,1013.63,360.0
2018-08-26 06:50,50.630455,-96.9807683333333,2.4,4.0,294,986.88,11.3,80,19.93,0.0,1013.53,360.0
2018-08-26 07:00,50.6304533333333,-96.9807716666667,1.9,2.9,257,986.94,10.9,83,19.94,0.0,1013.61,270.0
2018-08-26 07:10,50.630455,-96.9807716666667,2.8,4.3,249,987.00,10.2,86,19.93,0.0,1013.71,270.0
2018-08-26 07:20,50.63045,-96.98077,2.7,4.5,244,987.09,10.0,86,19.92,0.0,1013.82,270.0
2018-08-26 07:30,50.6304433333333,-96.98075,2.9,4.5,205,987.11,9.6,88,19.89,0.0,1013.88,270.0
2018-08-26 07:40,50.63047,-96.9807483333333,2.2,4.2,232,987.01,9.4,90,19.88,0.0,1013.80,270.0
2018-08-26 07:50,50.6304366666667,-96.9807783333333,1.9,3.8,243,986.97,9.5,90,19.88,0.0,1013.76,270.0
2018-08-26 08:00,50.6304433333333,-96.9807766666667,3.5,4.7,264,986.96,9.9,90,19.88,0.0,1013.73,234.7
2018-08-26 08:10,50.6304533333333,-96.98077,4.0,5.8,271,986.86,9.8,89,19.87,0.0,1013.63,234.7
2018-08-26 08:20,50.6304416666667,-96.9807666666667,4.3,5.9,274,986.83,9.6,91,19.85,0.0,1013.63,234.7
2018-08-26 08:30,50.6304366666667,-96.9807666666667,4.1,5.3,275,986.81,9.4,91,19.84,0.0,1013.61,234.7
2018-08-26 08:40,50.6304366666667,-96.98077,4.2,5.3,270,986.83,9.4,92,19.83,0.0,1013.63,234.7
2018-08-26 08:50,50.6304383333333,-96.98077,3.9,5.8,258,986.92,9.5,91,19.81,0.0,1013.75,234.7
2018-08-26 09:00,50.6304366666667,-96.9807683333333,5.2,5.9,256,986.96,9.3,92,19.78,0.0,1013.82,38.0
2018-08-26 09:10,50.6304283333333,-96.9807716666667,4.1,5.3,262,986.90,9.4,92,19.77,0.0,1013.77,38.0
2018-08-26 09:20,50.6304466666667,-96.9807833333333,3.9,4.7,262,986.89,9.3,92,19.76,0.0,1013.78,38.0
2018-08-26 09:30,50.630445,-96.9807716666667,4.1,5.1,261,986.85,9.1,92,19.76,0.0,1013.76,38.0
2018-08-26 09:40,50.630445,-96.98078,4.2,5.4,263,986.81,9.0,93,19.75,0.0,1013.72,38.0
2018-08-26 09:50,50.6304116666667,-96.980765,3.3,5.0,258,986.81,9.0,93,19.74,0.0,1013.71,38.0
2018-08-26 10:00,50.6304283333333,-96.980775,2.8,4.0,256,986.79,9.0,93,19.73,0.0,1013.68,170.2
2018-08-26 10:10,50.630435,-96.980765,3.5,4.4,249,986.88,8.9,92,19.72,0.0,1013.80,170.2
2018-08-26 10:20,50.63044,-96.9807716666667,3.7,4.8,257,986.91,8.8,92,19.71,0.0,1013.84,170.2
2018-08-26 10:30,50.6304366666667,-96.9807683333333,4.6,6.0,254,987.05,8.6,92,19.70,0.0,1013.99,170.2
2018-08-26 10:40,50.6304383333333,-96.98077,4.5,5.4,257,987.11,8.2,94,19.69,0.0,1014.07,170.2
2018-08-26 10:50,50.630425,-96.980745,4.2,5.3,254,987.10,8.4,93,19.68,0.0,1014.06,170.2
2018-08-26 11:00,50.630425,-96.98082,4.6,5.8,254,987.21,8.1,94,19.68,0.0,1014.18,243.8
2018-08-26 11:10,50.630425,-96.9807683333333,3.9,5.3,262,987.13,8.3,95,19.66,0.0,1014.09,243.8
2018-08-26 11:20,50.63043,-96.98077,4.8,5.7,258,987.18,8.2,93,19.65,0.0,1014.16,243.8
2018-08-26 11:30,50.6304433333333,-96.9808,3.4,5.2,260,987.25,8.0,94,19.63,0.0,1014.25,243.8
2018-08-26 11:40,50.63044,-96.9807683333333,4.0,5.0,263,987.25,8.1,93,19.62,0.0,1014.24,243.8
2018-08-26 11:50,50.6304383333333,-96.9807666666667,4.3,5.4,263,987.27,8.3,92,19.61,0.0,1014.25,243.8
2018-08-26 12:00,50.63044,-96.98077,4.1,5.0,260,987.30,8.5,91,19.59,0.0,1014.28,360.0
2018-08-26 12:10,50.6304266666667,-96.9807783333333,3.8,5.0,260,987.31,8.8,89,19.57,0.0,1014.28,360.0
2018-08-26 12:20,50.63044,-96.9807216666667,4.9,6.4,269,987.31,8.4,90,19.56,0.0,1014.30,360.0
2018-08-26 12:30,50.6304366666667,-96.9807583333333,5.1,6.7,274,987.23,8.2,90,19.56,0.0,1014.25,360.0
2018-08-26 12:40,50.6304366666667,-96.9807633333333,5.7,7.0,273,987.22,8.6,90,19.54,0.0,1014.22,360.0
2018-08-26 12:50,50.6304383333333,-96.9807633333333,6.8,7.7,278,987.14,9.0,86,19.53,0.0,1014.13,360.0
2018-08-26 13:00,50.6304383333333,-96.980765,6.0,7.5,273,987.17,9.5,84,19.52,0.0,1014.13,360.0
2018-08-26 13:10,50.63043,-96.9807466666667,5.5,6.6,281,987.05,9.9,81,19.50,0.0,1013.99,360.0
2018-08-26 13:20,50.6304333333333,-96.9807583333333,5.6,6.9,276,987.05,10.2,80,19.48,0.0,1013.98,360.0
2018-08-26 13:30,50.6304366666667,-96.98076,5.1,6.1,275,987.07,10.6,80,19.47,0.0,1013.98,360.0
2018-08-26 13:40,50.6304383333333,-96.9807633333333,4.6,6.0,272,987.12,11.0,79,19.44,0.0,1014.00,360.0
2018-08-26 13:50,50.63044,-96.9807633333333,3.9,5.6,272,987.04,11.5,79,19.42,0.0,1013.88,360.0
2018-08-26 14:00,50.6304383333333,-96.9807633333333,4.0,5.3,268,987.11,12.0,76,19.42,0.0,1013.93,65.3
2018-08-26 14:10,50.6304383333333,-96.98081,4.0,5.4,271,987.22,12.4,72,19.43,0.0,1014.03,65.3
2018-08-26 14:20,50.6304416666667,-96.98079,3.4,5.0,251,987.44,13.1,70,19.41,0.0,1014.23,65.3
2018-08-26 14:30,50.6304466666667,-96.9807766666667,3.6,4.8,245,987.49,13.6,66,19.39,0.0,1014.24,65.3
2018-08-26 14:40,50.6304466666667,-96.9807766666667,3.2,4.4,229,987.52,14.1,63,19.38,0.0,1014.23,65.3
2018-08-26 14:50,50.6304466666667,-96.98078,2.5,4.3,252,987.52,14.6,58,19.36,0.0,1014.19,65.3
2018-08-26 15:00,50.630445,-96.98078,1.4,3.8,243,987.46,14.9,56,19.36,0.0,1014.09,270.0
2018-08-26 15:10,50.6304333333333,-96.9807883333333,1.6,6.1,311,987.20,15.2,55,19.35,0.0,1013.79,270.0
2018-08-26 15:20,50.6304366666667,-96.98078,2.3,4.9,309,986.98,15.4,54,19.33,0.0,1013.54,270.0
2018-08-26 15:30,50.6304366666667,-96.9807783333333,2.1,5.4,321,986.91,15.5,50,19.33,0.0,1013.44,270.0
2018-08-26 15:40,50.6304333333333,-96.9807683333333,1.9,5.3,291,986.94,15.6,49,19.34,0.0,1013.44,270.0
2018-08-26 15:50,50.630445,-96.98077,1.7,7.0,47,986.95,15.9,49,19.34,0.0,1013.41,270.0
2018-08-26 16:00,50.6304483333333,-96.9807716666667,6.1,8.2,52,986.63,15.9,53,19.37,0.0,1013.07,311.7
2018-08-26 16:10,50.6304116666667,-96.9807683333333,6.6,8.8,62,986.56,15.8,53,19.37,0.0,1012.98,311.7
2018-08-26 16:20,50.6304366666667,-96.980785,6.9,9.1,65,986.59,15.9,53,19.37,0.0,1012.98,311.7
2018-08-26 16:30,50.6304366666667,-96.980775,7.5,10.8,49,986.58,15.8,52,19.35,0.0,1012.95,311.7
2018-08-26 16:40,50.630435,-96.98077,7.9,9.9,53,986.50,15.8,51,19.32,0.0,1012.84,311.7
2018-08-26 16:50,50.6304383333333,-96.98077,7.4,9.6,59,986.56,15.9,52,19.29,0.0,1012.89,311.7
2018-08-26 17:00,50.6304366666667,-96.9807666666667,7.6,9.4,56,986.64,16.0,52,19.30,0.0,1012.95,360.0
2018-08-26 17:10,50.6304283333333,-96.9807816666667,8.7,11.7,52,986.53,16.0,51,19.32,0.0,1012.83,360.0
2018-08-26 17:20,50.6304483333333,-96.9807866666667,8.4,12.2,51,986.49,16.0,51,19.34,0.0,1012.78,360.0
2018-08-26 17:30,50.6304466666667,-96.9807883333333,7.6,10.4,61,986.74,16.2,50,19.35,0.0,1013.02,360.0
2018-08-26 17:40,50.630435,-96.9807766666667,8.0,10.2,66,986.79,16.3,50,19.35,0.0,1013.05,360.0
2018-08-26 17:50,50.6304416666667,-96.9807833333333,7.6,9.8,69,986.94,16.4,50,19.33,0.0,1013.21,360.0
2018-08-26 18:00,50.6304316666667,-96.9807816666667,6.9,10.1,87,986.97,17.0,49,19.32,0.0,1013.21,142.0
2018-08-26 18:10,50.6304483333333,-96.980765,7.9,11.0,80,986.78,16.9,48,19.33,0.0,1013.02,142.0
2018-08-26 18:20,50.6304466666667,-96.980775,7.7,11.4,80,986.57,16.9,48,19.36,0.0,1012.80,142.0
2018-08-26 18:30,50.6304466666667,-96.9807766666667,9.1,11.7,73,986.24,16.7,49,19.38,0.0,1012.48,142.0
2018-08-26 18:40,50.6304433333333,-96.980775,8.9,11.0,68,986.11,16.5,49,19.37,0.0,1012.34,142.0
2018-08-26 18:50,50.6304433333333,-96.9807733333333,9.2,11.9,60,985.93,16.5,49,19.32,0.0,1012.16,142.0
2018-08-26 19:00,50.6304366666667,-96.98078,9.1,12.0,63,985.76,16.5,50,19.33,0.0,1011.99,216.6
2018-08-26 19:10,50.63044,-96.9807816666667,9.7,12.5,61,985.61,16.5,50,19.36,0.0,1011.84,216.6
2018-08-26 19:20,50.6304383333333,-96.98078,10.0,12.9,53,985.51,16.5,49,19.37,0.0,1011.72,216.6
2018-08-26 19:30,50.6304383333333,-96.9807783333333,10.0,13.2,47,985.32,16.5,50,19.36,0.0,1011.52,216.6
2018-08-26 19:40,50.6304233333333,-96.9807816666667,10.9,14.2,44,985.02,16.6,51,19.44,0.0,1011.21,216.6
2018-08-26 19:50,50.6304416666667,-96.980765,9.7,13.0,49,985.14,16.6,51,19.52,0.0,1011.30,216.6
2018-08-26 20:00,50.6304233333333,-96.9807783333333,9.8,12.2,50,985.25,16.7,51,19.55,0.0,1011.41,235.2
2018-08-26 20:10,50.6304266666667,-96.9807716666667,9.1,12.3,51,985.25,16.7,50,19.56,0.0,1011.42,235.2
2018-08-26 20:20,50.6304333333333,-96.98077,10.0,13.5,56,985.14,16.7,52,19.59,0.0,1011.30,235.2
2018-08-26 20:30,50.6304333333333,-96.9807683333333,10.6,12.9,65,985.04,16.8,52,19.64,0.0,1011.20,235.2
2018-08-26 20:40,50.6304366666667,-96.9807683333333,11.0,14.1,58,984.90,16.8,50,19.63,0.0,1011.07,235.2
2018-08-26 20:50,50.6304433333333,-96.9807733333333,10.4,13.6,50,984.84,16.9,52,19.59,0.0,1011.00,235.2
2018-08-26 21:00,50.630445,-96.9807733333333,10.1,13.1,57,984.87,17.0,50,19.57,0.0,1011.03,48.3
2018-08-26 21:10,50.6304433333333,-96.9807733333333,10.4,13.0,48,984.71,17.0,48,19.60,0.0,1010.87,48.3
2018-08-26 21:20,50.6304416666667,-96.9807716666667,12.4,15.8,43,984.44,17.3,49,19.65,0.0,1010.57,48.3
2018-08-26 21:30,50.63044,-96.98077,12.1,15.5,38,984.44,17.4,50,19.75,0.0,1010.56,48.3
2018-08-26 21:40,50.6304416666667,-96.980775,13.4,16.1,44,984.24,17.4,50,19.78,0.0,1010.35,48.3
2018-08-26 21:50,50.6304333333333,-96.9807783333333,12.3,15.0,51,984.30,17.4,51,19.77,0.0,1010.42,48.3
2018-08-26 22:00,50.6304383333333,-96.9807733333333,12.8,15.0,40,984.12,17.4,49,19.76,0.0,1010.23,54.7
2018-08-26 22:10,50.6304383333333,-96.98077,13.4,16.0,34,983.92,17.4,51,19.76,0.0,1010.02,54.7
2018-08-26 22:20,50.63044,-96.98075,13.0,15.6,39,983.88,17.5,51,19.76,0.0,1009.97,54.7
2018-08-26 22:30,50.6304383333333,-96.9807616666667,13.3,16.5,38,983.63,17.5,51,19.74,0.0,1009.72,54.7
2018-08-26 22:40,50.6304366666667,-96.980765,14.1,16.6,33,983.44,17.5,52,19.73,0.0,1009.52,54.7
2018-08-26 22:50,50.6304483333333,-96.9807833333333,13.2,15.5,27,983.32,17.5,50,19.72,0.0,1009.39,54.7
2018-08-26 23:00,50.6304516666667,-96.98079,13.6,15.7,26,982.96,17.5,51,19.71,0.0,1009.01,346.7
2018-08-26 23:10,50.63044,-96.9807916666667,13.2,16.6,33,982.78,17.7,50,19.70,0.0,1008.81,346.7
2018-08-26 23:20,50.6304366666667,-96.9807666666667,13.1,15.7,37,982.74,17.8,50,19.67,0.0,1008.76,346.7
2018-08-26 23:30,50.6304333333333,-96.9807666666667,12.4,14.6,36,982.67,17.8,49,19.66,0.0,1008.69,346.7
